Regional Weather Roundup
Issued by NWS

Home | Current Version | Previous Version | Text Only | Print | Product List | Glossary Off
Versions: 1 2 3 4 5 6 7 8 9 10 11 12 13 14 15 16 17 18 19 20 21 22 23 24 25 26 27 28 29 30 31 32 33 34 35 36 37 38 39 40 41 42 43 44 45 46 47 48 49 50

000
ASUS43 KDTX 262210
RWRMI
MICHIGAN HOURLY REGIONAL WEATHER ROUNDUP
NATIONAL WEATHER SERVICE DETROIT/PONTIAC MI
ISSUED BY NATIONAL WEATHER SERVICE GRAND RAPIDS MI
600 PM EDT WED JUL 26 2017

NOTE: "FAIR" INDICATES FEW OR NO CLOUDS BELOW 12,000 FEET WITH NO
SIGNIFICANT WEATHER AND/OR OBSTRUCTION TO VISIBILITY.

MIZ047>049-052>055-059>063-066>070-074>076-081>083-262300-
SOUTHEAST LOWER MICHIGAN

CITY           SKY/WX    TMP DP  RH WIND       PRES   REMARKS
ADRIAN         FAIR      80  62  54 VRB5      30.07S
ALMA           FAIR      79  62  55 SW10G18   30.04F
ANN ARBOR      FAIR      80  62  54 CALM      30.06S
BAD AXE        RAIN      70  66  88 SW5       30.05F
DETROIT CITY   FAIR      80  60  50 W7        30.05F
DETROIT        PTSUNNY   81  63  54 VRB3      30.06S
FLINT          FAIR      80  61  52 VRB3      30.04F
GROSSE ILE     FAIR      77  65  65 S6        30.05S
HILLSDALE      PTSUNNY   79  61  53 CALM      30.07R
HOWELL         FAIR      79  61  53 CALM      30.05F

CITY           SKY/WX    TMP DP  RH WIND       PRES   REMARKS
JACKSON        FAIR      80  60  50 CALM      30.06F
LANSING        FAIR      80  62  54 W7        30.05F
MASON          FAIR      80  63  56 CALM      30.05F
MONROE         FAIR      79  63  57 W3        30.05S
MT. CLEMENS    CLOUDY    78  65  64 SE9       30.05F
PONTIAC        PTSUNNY   79  60  52 VRB5      30.05F
PORT HOPE        N/A     69  66  90 VRB7      30.00F
PORT HURON     FAIR      77  63  61 S6        30.06F
TRI CITIES     LGT RAIN  75  69  81 S3        30.04F
YPSILANTI      FAIR      82  64  54 VRB3      30.06F
$$
MIZ043>046-050>051-056>058-064>065-071>073-077>080-262300-
SOUTHWEST LOWER MICHIGAN

CITY           SKY/WX    TMP DP  RH WIND       PRES   REMARKS
BATTLE CREEK   FAIR      82  63  52 SW9       30.05F
BENTON HARBOR  FAIR      81  67  62 NW3       30.01F
BIG RAPIDS     RAIN      70  68  93 SW3       30.05S
COLDWATER      FAIR      80  61  53 CALM      30.05F
HOLLAND        FAIR      80  63  55 SW7       30.03F
GRAND RAPIDS   CLOUDY    80  65  59 SW5       30.04S
KALAMAZOO      FAIR      82  61  48 W7        30.04F
MARSHALL       FAIR      81  64  56 CALM      30.05F
MOUNT PLEASANT HVY RAIN  72  69  88 S8        30.02S
MUSKEGON       PTSUNNY   77  65  66 SW5       30.02F
STURGIS        FAIR      80  63  57 SW3       30.04F
$$
MIZ016>042-262300-
NORTHERN LOWER MICHIGAN

CITY           SKY/WX    TMP DP  RH WIND       PRES   REMARKS
ALPENA         FAIR      70  69  97 SW6       29.96R
BEAVER ISLAND  CLOUDY    68  67  95 SW13G20   29.95S
BELLAIRE       CLOUDY    71  67  87 SW3       29.98R
CADILLAC       LGT RAIN  70  67  90 SW13      30.01F
CHARLEVOIX     CLOUDY    70  69  94 SW10      29.98R
GAYLORD        PTSUNNY   70  65  84 SW15      29.99R
HOUGHTON LAKE  LGT RAIN  69  66  90 SW7       30.01S
MANISTEE       PTSUNNY   69  68  96 VRB3      29.96F
OSCODA         LGT RAIN  69  67  93 SW14G21   29.97S
PELLSTON       CLOUDY    70  67  90 SW9       29.95S
TRAVERSE CITY  CLOUDY    73  67  81 SW7       29.97R
LUDINGTON      RAIN      69  68  97 SE6       29.97F
$$
MIZ007>008-015-262300-
EASTERN UPPER MICHIGAN

CITY           SKY/WX    TMP DP  RH WIND       PRES   REMARKS
KINROSS        PTSUNNY   70  63  78 N7        29.93R
MACKINAC ISLAN CLOUDY    67  67 100 SW13G25   29.93F
NEWBERRY       CLOUDY    77  64  64 W7        29.92S
S. S. MARIE    FAIR      75  63  66 NW6       29.92R
$$
MIZ004>006-011>014-085-262300-
CENTRAL UPPER MICHIGAN

CITY           SKY/WX    TMP DP  RH WIND       PRES   REMARKS
MANISTIQUE     PTSUNNY   69  66  89 S8        29.92F
ESCANABA       PTSUNNY   74  71  91 SW14      29.92R
MENOMINEE      CLOUDY    74  71  91 SW7       29.95F
SAWYER-GWINN   MOSUNNY   75  59  57 NE14      29.94R
$$
MIZ001>003-009>011-084-262300-
WESTERN UPPER MICHIGAN

CITY           SKY/WX    TMP DP  RH WIND       PRES   REMARKS
IRON MOUNTAIN  PTSUNNY   84  64  50 W5        29.92S
HOUGHTON       FAIR      77  54  44 W15       29.94S
COPPER HARBOR    N/A     78  52  40 NW9G17    29.90F
IRONWOOD       FAIR      77  58  51 NW13      29.99R
$$

ABBREVIATIONS USED IN REMARKS
   TC - TEMPERATURE IN CELSIUS
  WCI - WIND CHILL INDEX
   HX - HEAT INDEX
  VSB - VISIBILITY




USA.gov is the U.S. government's official web portal to all federal, state and local government web resources and services.